Hourly Weather Suhaya

Today, 17 January, Sunday

Time Temperature Precipitation Wind Pressure Humidity
00:00 -19°C° 0 mm 2 mps 752 mmHg 94%
01:00 -20°C° 0 mm 2 mps 752 mmHg 95%
02:00 -20°C° 0 mm 2 mps 752 mmHg 96%
03:00 -20°C° 0 mm 2 mps 752 mmHg 96%
04:00 -21°C° 0 mm 2 mps 752 mmHg 96%
05:00 -21°C° 0 mm 2 mps 752 mmHg 95%
06:00 -21°C° 0 mm 2 mps 753 mmHg 95%
07:00 -21°C° 0 mm 2 mps 753 mmHg 94%
08:00 -23°C° 0 mm 2 mps 753 mmHg 93%
09:00 -21°C° 0 mm 2 mps 754 mmHg 91%
10:00 -18°C° 0 mm 1 mps 754 mmHg 88%
11:00 -17°C° 0 mm 1 mps 754 mmHg 85%
12:00 -16°C° 0 mm 1 mps 754 mmHg 86%
13:00 -15°C° 0 mm 1 mps 754 mmHg 86%
14:00 -15°C° 0 mm 1 mps 754 mmHg 87%
15:00 -15°C° 0 mm 1 mps 754 mmHg 89%
16:00 -16°C° 0 mm 1 mps 754 mmHg 92%
17:00 -17°C° 0 mm 1 mps 755 mmHg 95%
18:00 -17°C° 0 mm 1 mps 755 mmHg 95%
19:00 -17°C° 0 mm 1 mps 755 mmHg 96%
20:00 -17°C° 0 mm 0 mps 755 mmHg 96%
21:00 -17°C° 0 mm 0 mps 755 mmHg 97%
22:00 -17°C° 0 mm 0 mps 755 mmHg 97%
23:00 -17°C° 0 mm 1 mps 755 mmHg 97%

Tomorrow, 18 January, Monday

Time Temperature Precipitation Wind Pressure Humidity
00:00 -17°C° 0 mm 1 mps 755 mmHg 97%
01:00 -17°C° 0 mm 1 mps 755 mmHg 97%
02:00 -17°C° 0 mm 1 mps 755 mmHg 97%
03:00 -17°C° 0 mm 1 mps 754 mmHg 97%
04:00 -16°C° 0 mm 1 mps 754 mmHg 97%
05:00 -16°C° 0 mm 1 mps 754 mmHg 97%
06:00 -16°C° 0 mm 1 mps 754 mmHg 96%
07:00 -15°C° 0 mm 1 mps 754 mmHg 96%
08:00 -15°C° 0 mm 1 mps 754 mmHg 95%
09:00 -14°C° 0 mm 1 mps 755 mmHg 94%
10:00 -13°C° 0 mm 1 mps 755 mmHg 93%
11:00 -13°C° 0 mm 1 mps 755 mmHg 91%
12:00 -12°C° 0 mm 1 mps 754 mmHg 91%
13:00 -11°C° 0 mm 1 mps 754 mmHg 91%
14:00 -11°C° 0 mm 1 mps 754 mmHg 91%
15:00 -11°C° 0 mm 1 mps 754 mmHg 92%
16:00 -12°C° 0 mm 1 mps 754 mmHg 94%
17:00 -13°C° 0 mm 1 mps 754 mmHg 96%
18:00 -13°C° 0 mm 1 mps 754 mmHg 96%
19:00 -13°C° 0 mm 1 mps 754 mmHg 96%
20:00 -13°C° 0 mm 1 mps 754 mmHg 96%
21:00 -13°C° 0 mm 1 mps 754 mmHg 96%
22:00 -13°C° 0 mm 1 mps 754 mmHg 96%
23:00 -14°C° 0 mm 1 mps 754 mmHg 97%

Day after tomorrow, 19 January, Tuesday

Time Temperature Precipitation Wind Pressure Humidity
00:00 -13°C° 0 mm 1 mps 754 mmHg 96%
01:00 -13°C° 0 mm 1 mps 754 mmHg 96%
02:00 -12°C° 0 mm 1 mps 754 mmHg 96%
03:00 -12°C° 0 mm 1 mps 754 mmHg 96%
04:00 -12°C° 0 mm 0 mps 753 mmHg 96%
05:00 -12°C° 0 mm 0 mps 753 mmHg 96%
06:00 -13°C° 0 mm 0 mps 753 mmHg 96%
07:00 -13°C° 0 mm 0 mps 753 mmHg 96%
08:00 -13°C° 0 mm 0 mps 754 mmHg 97%
09:00 -12°C° 0 mm 0 mps 753 mmHg 95%
10:00 -11°C° 0 mm 0 mps 753 mmHg 93%
11:00 -11°C° 0 mm 0 mps 753 mmHg 91%
12:00 -10°C° 0 mm 0 mps 753 mmHg 91%
13:00 -10°C° 0 mm 0 mps 753 mmHg 91%
14:00 -10°C° 0 mm 0 mps 753 mmHg 91%
15:00 -11°C° 0 mm 0 mps 753 mmHg 93%
16:00 -12°C° 0 mm 1 mps 753 mmHg 95%
17:00 -13°C° 0 mm 1 mps 753 mmHg 96%
18:00 -13°C° 0 mm 1 mps 753 mmHg 96%
19:00 -13°C° 0 mm 1 mps 753 mmHg 96%
20:00 -13°C° 0 mm 1 mps 753 mmHg 96%
21:00 -14°C° 0 mm 1 mps 753 mmHg 96%
22:00 -14°C° 0 mm 1 mps 753 mmHg 96%
23:00 -14°C° 0 mm 1 mps 754 mmHg 96%

20 January, Wednesday

Time Temperature Precipitation Wind Pressure Humidity
00:00 -14°C° 0 mm 1 mps 754 mmHg 96%
01:00 -14°C° 0 mm 1 mps 754 mmHg 96%
02:00 -15°C° 0 mm 1 mps 754 mmHg 96%
03:00 -15°C° 0 mm 1 mps 754 mmHg 96%
04:00 -15°C° 0 mm 1 mps 754 mmHg 96%
05:00 -15°C° 0 mm 1 mps 754 mmHg 96%
06:00 -17°C° 0 mm 2 mps 754 mmHg 96%
07:00 -18°C° 0 mm 2 mps 754 mmHg 96%
08:00 -18°C° 0 mm 2 mps 754 mmHg 96%
09:00 -17°C° 0 mm 2 mps 754 mmHg 94%
10:00 -16°C° 0 mm 2 mps 754 mmHg 91%
11:00 -15°C° 0 mm 2 mps 754 mmHg 89%
12:00 -14°C° 0 mm 2 mps 754 mmHg 89%
13:00 -13°C° 0 mm 2 mps 754 mmHg 88%
14:00 -14°C° 0 mm 3 mps 753 mmHg 88%
15:00 -14°C° 0 mm 3 mps 753 mmHg 89%
16:00 -15°C° 0 mm 3 mps 753 mmHg 91%
17:00 -16°C° 0 mm 3 mps 753 mmHg 92%
18:00 -16°C° 0 mm 3 mps 753 mmHg 91%
19:00 -16°C° 0 mm 3 mps 753 mmHg 90%
20:00 -17°C° 0 mm 4 mps 752 mmHg 89%
21:00 -17°C° 0 mm 4 mps 752 mmHg 90%
22:00 -16°C° 0 mm 4 mps 752 mmHg 90%
23:00 -16°C° 0 mm 4 mps 751 mmHg 90%

21 January, Thursday

Time Temperature Precipitation Wind Pressure Humidity
00:00 -15°C° 0.1 mm 4 mps 751 mmHg 91%
01:00 -15°C° 0.1 mm 4 mps 750 mmHg 91%
02:00 -14°C° 0.1 mm 5 mps 750 mmHg 92%
03:00 -14°C° 0.3 mm 5 mps 749 mmHg 92%
04:00 -13°C° 0.3 mm 5 mps 749 mmHg 92%
05:00 -12°C° 0.3 mm 4 mps 748 mmHg 93%
06:00 -12°C° 0.3 mm 4 mps 748 mmHg 93%
07:00 -11°C° 0.3 mm 4 mps 747 mmHg 93%
08:00 -11°C° 0.3 mm 4 mps 747 mmHg 92%
09:00 -10°C° 0.1 mm 4 mps 747 mmHg 92%
10:00 -9°C° 0.1 mm 3 mps 747 mmHg 91%
11:00 -8°C° 0.1 mm 3 mps 747 mmHg 90%
12:00 -7°C° 0.1 mm 3 mps 747 mmHg 91%
13:00 -6°C° 0.1 mm 3 mps 746 mmHg 92%
14:00 -6°C° 0.1 mm 3 mps 746 mmHg 93%
15:00 -5°C° 0 mm 3 mps 746 mmHg 94%
16:00 -4°C° 0 mm 3 mps 746 mmHg 95%
17:00 -2°C° 0 mm 3 mps 746 mmHg 96%
18:00 -1°C° 0.1 mm 3 mps 746 mmHg 96%
19:00 -1°C° 0.1 mm 3 mps 746 mmHg 96%
20:00 -1°C° 0.1 mm 4 mps 746 mmHg 95%
21:00 -1°C° 0 mm 4 mps 745 mmHg 95%
22:00 -1°C° 0 mm 4 mps 745 mmHg 94%
23:00 -1°C° 0 mm 4 mps 745 mmHg 94%

22 January, Friday

Time Temperature Precipitation Wind Pressure Humidity
00:00 -2°C° 0 mm 4 mps 745 mmHg 94%
01:00 -2°C° 0 mm 4 mps 745 mmHg 95%
02:00 -1°C° 0 mm 3 mps 745 mmHg 96%
03:00 -1°C° 0 mm 3 mps 745 mmHg 96%
04:00 -1°C° 0 mm 3 mps 745 mmHg 96%
05:00 0°C° 0 mm 3 mps 745 mmHg 97%
06:00 0°C° 0 mm 3 mps 745 mmHg 96%
07:00 0°C° 0 mm 3 mps 745 mmHg 95%
08:00 0°C° 0 mm 3 mps 745 mmHg 95%
09:00 0°C° 0 mm 3 mps 745 mmHg 94%
10:00 0°C° 0 mm 3 mps 745 mmHg 93%
11:00 -1°C° 0 mm 4 mps 744 mmHg 92%
12:00 0°C° 0 mm 3 mps 744 mmHg 94%
13:00 0°C° 0 mm 3 mps 744 mmHg 96%
14:00 0°C° 0 mm 3 mps 744 mmHg 98%
15:00 0°C° 0 mm 3 mps 745 mmHg 97%
16:00 0°C° 0 mm 3 mps 745 mmHg 97%
17:00 +1°C° 0 mm 2 mps 745 mmHg 97%
18:00 +1°C° 0 mm 2 mps 745 mmHg 97%
19:00 -1°C° 0 mm 2 mps 745 mmHg 96%
20:00 -1°C° 0 mm 2 mps 745 mmHg 96%
21:00 -1°C° 0 mm 2 mps 745 mmHg 96%
22:00 -2°C° 0 mm 2 mps 746 mmHg 96%
23:00 -2°C° 0 mm 2 mps 746 mmHg 96%
Show more